Find Kosmos-1481

NORAD ID: 14182 Int'l Des: 1983-070 Owner: PVO Country: SU operational
MEOELLIPTICALHEO_ELLIPTICALSEMI_SYNC

Current View

Loading 3D Globe...

About Kosmos-1481

Kosmos-1481 (NORAD 14182) is a satellite launched Jul 8, 1983 by PVO of SU. It operates in MEO, ELLIPTICAL, HEO_ELLIPTICAL, SEMI_SYNC orbit with a mass of 1250.00 kg.

Upcoming Passes

Passes for default location (London). Set your location on the main map for personalized predictions.

Altitude History

Loading altitude history...

Two-Line Element Set

1 14182U 83070A 26194.38873963 .00000690 00000-0 00000+0 0 9997
2 14182 70.5209 250.9008 5639304 227.3068 68.9734 2.03575898240632
Epoch: Jul 13, 2026 • Age: 23 hours

Current Status

Altitude 16516.9 km
Apogee / Perigee N/A
Velocity 4.43 km/s
Sub-Earth Point -19.01°S, 170.31°W
Launch Date Jul 8, 1983
Age 43 years
Type other

Technical Details

Classification Payload
Mass 1250.00 kg
Dry Mass 1150.00 kg
Total Mass 1250.00 kg
Length 4.00 m
Diameter 2.00 m
Span 5.00 m
Shape Cyl + 2 Pan
Manufacturer NPOL/KOMET
Bus Type Oko
Phase Status In Orbit
Owner/State PVO/SU

Most Searched